Weather History for Tegucigalpa, Honduras

Change the Weather History Date:

Thursday, October 25, 2012

  Actual Average Record
Temperature  
Mean Temperature 70 °F -  
Max Temperature 82 °F 76 °F 86 °F (1997)
Min Temperature 59 °F 60 °F 53 °F (1999)
Cooling Degree Days 6    
Growing Degree Days 20 (Base 50)    
Moisture  
Dew Point 65 °F    
Average Humidity 83    
Maximum Humidity 100    
Minimum Humidity 54    
Precipitation  
Precipitation 0.00 in 0.07 in - ()
Sea Level Pressure  
Sea Level Pressure 29.93 in    
Wind  
Wind Speed 6 mph ()    
Max Wind Speed 14 mph    
Max Gust Speed -    
Visibility 6.5 miles    
Events      
Averages and records for this station are not official NWS values.
T = Trace of Precipitation, MM = Missing Value Source: Averaged Metar Reports

Daily Weather History Graph

Daily Weather History Graph

Search for Another Location

Airport:

Trip Planner

Search our weather history database for the weather conditions in past years. The results will help you decide how hot, cold, wet, or windy it might be!

Date:

Astronomy

Oct. 25, 2012 Rise Set
Actual Time 5:41 AM CST 5:23 PM CST
Civil Twilight 5:20 AM CST 5:45 PM CST
Nautical Twilight 4:54 AM CST 6:10 PM CST
Astronomical Twilight 4:29 AM CST 6:35 PM CST
Moon 2:39 PM CST (10/25) 2:13 AM CST (10/25)
Length of Visible Light 12h 25m
Length of Day
11h 41m
Waxing Gibbous, 85% of the Moon is Illuminated
Oct 25
Waxing Gibbous
Oct 29
Full
Nov 6
Last Quarter
Nov 13
New
Nov 20
First Quarter

Hourly Weather History & Observations

Time (CST) Temp. Heat Index Dew Point Humidity Pressure Visibility Wind Dir Wind Speed Gust Speed Precip Events Conditions
12:00 AM 66 °F - 64 °F 93% 29.82 in 6 mi North 6.9 mph - -   Haze
12:00 AM 66.2 °F - 64.4 °F 94% 29.98 in 6.2 mi North 6.9 mph - N/A   Mostly Cloudy
1:00 AM 66.2 °F - 64.4 °F 94% 29.98 in 6.2 mi North 6.9 mph - N/A   Mostly Cloudy
2:00 AM 66.2 °F - 64.4 °F 94% 29.98 in 6.2 mi NNE 6.9 mph - N/A   Mostly Cloudy
3:00 AM 64 °F - 63 °F 95% 29.80 in 6 mi North 4.6 mph - -   Haze
3:00 AM 64.4 °F - 62.6 °F 94% 29.92 in 6.2 mi North 4.6 mph - N/A   Mostly Cloudy
4:00 AM 64.4 °F - 62.6 °F 94% 29.92 in 6.2 mi North 4.6 mph - N/A   Mostly Cloudy
5:00 AM 60.8 °F - 60.8 °F 100% 29.95 in 6.2 mi SW 2.3 mph - N/A   Scattered Clouds
6:00 AM 59 °F - 59 °F 100% 29.88 in 9 mi SW 3.5 mph - -   Haze
6:00 AM 59.0 °F - 59.0 °F 100% 29.98 in 6.2 mi SW 3.5 mph - N/A   Mostly Cloudy
7:00 AM 60.8 °F - 60.8 °F 100% 29.98 in 6.2 mi WSW 3.5 mph - N/A   Mostly Cloudy
8:00 AM 68.0 °F - 62.6 °F 83% 30.01 in 6.2 mi Variable 1.2 mph - N/A   Mostly Cloudy
9:00 AM 72 °F - 64 °F 70% 29.83 in 9 mi North 10.4 mph - -   Haze
9:00 AM 71.6 °F - 64.4 °F 78% 30.01 in 6.2 mi North 10.4 mph - N/A   Mostly Cloudy
10:00 AM 75.2 °F - 66.2 °F 73% 30.01 in 6.2 mi North 11.5 mph - N/A   Mostly Cloudy
11:00 AM 78.8 °F - 66.2 °F 65% 30.01 in 6.2 mi North 13.8 mph - N/A   Scattered Clouds
12:00 PM 80 °F - 66 °F 54% 29.74 in 9 mi North 11.5 mph - -   Haze
12:00 PM 78.8 °F - 66.2 °F 65% 29.98 in 6.2 mi North 11.5 mph - N/A   Scattered Clouds
1:00 PM 80.6 °F 82.7 °F 66.2 °F 61% 29.95 in 6.2 mi North 11.5 mph - N/A   Mostly Cloudy
2:00 PM 80.6 °F 83.2 °F 68.0 °F 65% 29.92 in 6.2 mi North 6.9 mph - N/A   Mostly Cloudy
3:00 PM 78 °F - 67 °F 60% 29.68 in 8 mi North 9.2 mph - -   Partly Cloudy
3:00 PM 78.8 °F - 66.2 °F 65% 29.92 in 6.2 mi North 9.2 mph - N/A   Scattered Clouds
4:00 PM 77.0 °F - 66.2 °F 69% 29.92 in 6.2 mi North 9.2 mph - N/A   Scattered Clouds
5:00 PM 75.2 °F - 66.2 °F 73% 29.92 in 6.2 mi NNE 11.5 mph - N/A   Scattered Clouds
6:00 PM 72 °F - 67 °F 78% 29.76 in 6 mi North 9.2 mph - -   Haze
6:00 PM 71.6 °F - 66.2 °F 83% 29.95 in 6.2 mi North 9.2 mph - N/A   Scattered Clouds
7:00 PM 71.6 °F - 68.0 °F 88% 29.98 in 6.2 mi North 4.6 mph - N/A   Mostly Cloudy
8:00 PM 71.6 °F - 66.2 °F 83% 30.01 in 6.2 mi NNW 4.6 mph - N/A   Mostly Cloudy
9:00 PM 68.0 °F - 66.2 °F 94% 30.01 in 6.2 mi North 5.8 mph - N/A   Mostly Cloudy
10:00 PM 66.2 °F - 64.4 °F 94% 30.04 in 6.2 mi WSW 4.6 mph - N/A   Scattered Clouds
11:00 PM 64.4 °F - 64.4 °F 100% 30.04 in 6.2 mi Calm Calm - N/A   Scattered Clouds